Kalispell, MT

1:30 AM MST on January 20, 2018 (GMT -0700)
Glacier Park International

Weather History for KGPI - October, 2011

Change the Weather History Date:

Sunday, October 16, 2011

  Actual Average Record
Temperature  
Mean Temperature 39 °F 42 °F  
Max Temperature 51 °F 55 °F 73 °F (1974)
Min Temperature 26 °F 29 °F 15 °F (1999)
Degree Days  
Heating Degree Days 26 23  
Month to date heating degree days 278 323  
Since 1 July heating degree days 653 823  
Cooling Degree Days 0 0  
Month to date cooling degree days 0 0  
Year to date cooling degree days 97 147  
Moisture  
Dew Point 31 °F    
Average Humidity 76    
Maximum Humidity 100    
Minimum Humidity 52    
Precipitation  
Precipitation 0.00 in 0.03 in 0.57 in (2004)
Month to date precipitation 1.48 0.47  
Year to date precipitation 14.63 13.46  
Snow  
Snow 0.00 in - - ()
Month to date snowfall 0.0  
Year to date snowfall 27.0  
Since 1 July snowfall 0.0  
Snow Depth 0.00 in    
Sea Level Pressure  
Sea Level Pressure 30.15 in    
Wind  
Wind Speed 3 mph (SW)    
Max Wind Speed 12 mph    
Max Gust Speed 15 mph    
Visibility 8 miles    
Events      
T = Trace of Precipitation, MM = Missing Value Source: NWS Daily Summary

Daily Weather History Graph

Daily Weather History Graph

Search for Another Location

Airport or City:

Trip Planner

Search our weather history database for the weather conditions in past years. The results will help you decide how hot, cold, wet, or windy it might be!

Date:

Astronomy

Oct. 16, 2011 Rise Set
Actual Time 7:57 AM MDT 6:46 PM MDT
Civil Twilight 7:26 AM MDT 7:17 PM MDT
Nautical Twilight 6:50 AM MDT 7:54 PM MDT
Astronomical Twilight 6:13 AM MDT 8:30 PM MDT
Moon 9:15 PM MDT (10/16) 12:39 PM MDT (10/16)
Length of Visible Light 11h 51m
Length of Day
10h 48m
Waning Gibbous, 82% of the Moon is Illuminated
Oct 16
Waning Gibbous
Oct 19
Last Quarter
Oct 26
New
Nov 2
First Quarter
Nov 10
Full

Hourly Weather History & Observations

Time (MDT) Temp. Windchill Dew Point Humidity Pressure Visibility Wind Dir Wind Speed Gust Speed Precip Events Conditions
12:42 AM 28.4 °F - 28.4 °F 100% 30.11 in 2.5 mi Calm Calm - N/A   Clear
12:50 AM 28.4 °F - 26.6 °F 93% 30.11 in 6.0 mi Calm Calm - N/A   Clear
12:55 AM 28.0 °F - 27.0 °F 96% 30.17 in 7.0 mi Calm Calm - N/A   Clear
1:55 AM 28.9 °F - 27.0 °F 92% 30.17 in 7.0 mi Calm Calm - N/A   Clear
2:55 AM 28.0 °F 22.8 °F 28.0 °F 100% 30.16 in 9.0 mi WNW 4.6 mph - N/A   Clear
3:55 AM 28.0 °F 22.8 °F 27.0 °F 96% 30.15 in 10.0 mi West 4.6 mph - N/A   Clear
4:55 AM 28.0 °F - 27.0 °F 96% 30.14 in 10.0 mi Calm Calm - N/A   Clear
5:55 AM 27.0 °F - 26.1 °F 96% 30.12 in 10.0 mi Calm Calm - N/A   Clear
6:55 AM 28.0 °F 24.2 °F 27.0 °F 96% 30.14 in 10.0 mi West 3.5 mph - N/A   Clear
7:55 AM 28.9 °F - 27.0 °F 92% 30.14 in 10.0 mi Calm Calm - N/A   Clear
8:55 AM 28.9 °F - 28.0 °F 96% 30.14 in 10.0 mi Calm Calm - N/A   Clear
9:55 AM 32.0 °F - 30.9 °F 96% 30.14 in 10.0 mi Calm Calm - N/A   Clear
10:55 AM 37.9 °F - 35.1 °F 89% 30.14 in 10.0 mi Calm Calm - N/A   Clear
11:55 AM 44.1 °F - 35.1 °F 71% 30.13 in 10.0 mi Calm Calm - N/A   Partly Cloudy
12:55 PM 44.1 °F 41.5 °F 35.1 °F 71% 30.13 in 10.0 mi East 4.6 mph - N/A   Clear
1:55 PM 46.9 °F - 35.1 °F 63% 30.11 in 10.0 mi Calm Calm - N/A   Clear
2:55 PM 48.9 °F - 35.1 °F 59% 30.11 in 10.0 mi Variable 3.5 mph - N/A   Clear
3:55 PM 50.0 °F - 34.0 °F 54% 30.10 in 10.0 mi South 6.9 mph - N/A   Clear
4:55 PM 48.9 °F - 36.0 °F 61% 30.11 in 10.0 mi South 9.2 mph - N/A   Clear
5:55 PM 46.4 °F 41.5 °F 37.4 °F 71% 30.07 in 10.0 mi SSE 10.4 mph - N/A   Clear
6:55 PM 42.1 °F 39.2 °F 37.0 °F 82% 30.15 in 10.0 mi SSE 4.6 mph - N/A   Clear
7:55 PM 37.0 °F 34.5 °F 35.1 °F 93% 30.19 in 10.0 mi NNW 3.5 mph - N/A   Clear
8:55 PM 33.1 °F - 32.0 °F 96% 30.22 in 10.0 mi Calm Calm - N/A   Clear
9:55 PM 30.9 °F - 30.9 °F 100% 30.24 in 9.0 mi Calm Calm - N/A   Clear
10:38 PM 28.4 °F - 28.4 °F 100% 30.18 in 2.0 mi Calm Calm - N/A   Partly Cloudy
10:45 PM 30.2 °F - 30.2 °F 100% 30.18 in 1.5 mi Calm Calm - N/A   Partly Cloudy
10:49 PM 30.2 °F - 30.2 °F 100% 30.18 in 3.0 mi Calm Calm - N/A   Clear
10:55 PM 30.0 °F 26.5 °F 30.0 °F 100% 30.25 in 4.0 mi WSW 3.5 mph - N/A   Clear
11:55 PM 28.4 °F 24.6 °F 28.4 °F 100% 30.20 in 10.0 mi West 3.5 mph - N/A   Scattered Clouds